Regional Weather Roundup
Issued by NWS

Home | Current Version | Previous Version | Graphics & Text | Print | Product List | Glossary On
Versions: 1 2 3 4 5 6 7 8 9 10 11 12 13 14 15 16 17 18 19 20 21 22 23 24 25 26 27 28 29 30 31 32 33 34 35 36 37 38 39 40 41 42 43 44 45 46 47 48 49 50
000
ASUS43 KOAX 222302
RWRNE

WEATHER ROUNDUP FOR NEBRASKA
NATIONAL WEATHER SERVICE OMAHA NE
500 PM CST MON JAN 22 2018

NOTES: SATELLITE DATA IS BEING USED TO AUGMENT CLOUD COVER ABOVE
       12000 FEET.
       "FAIR" INDICATES FEW OR NO CLOUDS BELOW 12,000 FEET WITH NO
       SIGNIFICANT WEATHER AND/OR OBSTRUCTIONS TO VISIBILITY.


NEZ001>004-019>022-054>056-230000-
NEBRASKA PANHANDLE

CITY           SKY/WX    TMP DP  RH WIND       PRES   REMARKS
SCOTTSBLUFF    CLEAR     31  19  61 W18       30.01R WCI  19
ALLIANCE       CLEAR     26  18  71 W10       29.98R WCI  16
CHADRON        CLEAR     21  13  71 W9        30.03R WCI  11
KIMBALL        CLEAR     30  17  58 NW12G17   30.02R WCI  20
SIDNEY         CLEAR     31  18  58 NW20      30.00R WCI  19
$$

NEZ057>060-069>072-079>082-230000-
SOUTHWEST NEBRASKA

CITY           SKY/WX    TMP DP  RH WIND       PRES   REMARKS
NORTH PLATTE   CLEAR     30  19  63 NW14      29.95R WCI  19
IMPERIAL       MIX PCPN  30  19  63 NW18      29.97R WCI  18
LEXINGTON      PTCLDY    31  23  71 NW16      29.90R WCI  20
MCCOOK         CLEAR     31  23  72 W17G25    29.96R WCI  19
$$

NEZ005>010-023>029-035>040-094-230000-
NORTH CENTRAL NEBRASKA

CITY           SKY/WX    TMP DP  RH WIND       PRES   REMARKS
VALENTINE      CLEAR     30  21  69 NW13G21   29.95R WCI  20
AINSWORTH      CLEAR     29  24  83 NW17      29.92R WCI  17
BROKEN BOW     PTCLDY    31  21  66 NW20      29.88R WCI  19
ORD            MOCLDY    29  23  78 NW20      29.85R WCI  16
THEDFORD       CLEAR     30  22  70 NW17      29.94R WCI  18
$$

NEZ041-046>049-061>064-073>077-083>087-230000-
SOUTH CENTRAL NEBRASKA

CITY           SKY/WX    TMP DP  RH WIND       PRES   REMARKS
GRAND ISLAND   CLOUDY    27  23  85 NW29G39   29.82R WCI  11
AURORA         CLOUDY    27  25  92 NW29G38   29.80R WCI  11
HASTINGS       CLOUDY    30  22  72 NW24G38   29.83R WCI  16
HEBRON         CLOUDY    31  27  84 NW26G39   29.76R FOG     WCI  17
HOLDREGE       CLOUDY    32  26  78 NW9       29.86R WCI  24
KEARNEY        CLOUDY    33  24  69 N23G35    29.85  WCI  21
YORK           LGT SNOW  27  27 100 N24G39    29.75R VSB 3/4 WCI  12
$$

NEZ011>018-030>034-042>045-230000-
NORTHEAST NEBRASKA

CITY           SKY/WX    TMP DP  RH WIND       PRES   REMARKS
NORFOLK        FOG       25  22  88 NW30G44   29.76R VSB 1   WCI   8
ALBION         LGT SNOW  26  23  89 N28G36    29.81R VSB 1   WCI  10
BLAIR          CLOUDY    30  28  92 N25G39    29.62R WCI  16
COLUMBUS       LGT SNOW  25  24  96 MISG      29.76R FOG
FREMONT          N/A    N/A N/A N/A MISG        N/A
TEKAMAH        SNOW      30  29  96 N37G47    29.67R VSB 1/2 WCI  14
$$

NEZ050>053-065>068-078-088>093-230000-
SOUTHEAST NEBRASKA

CITY           SKY/WX    TMP DP  RH WIND       PRES   REMARKS
LINCOLN        CLOUDY    29  25  85 NW29G43   29.71R BLWGSNOWWCI  14
OMAHA EPPLEY   LGT SNOW  31  28  89 N35G52    29.63R FOG     WCI  15
BEATRICE       LGT SNOW  30  28  92 N35G41    29.69R VSB 1   WCI  14
FALLS CITY     MIX PCPN  33  29  85 NW26G40   29.56R WCI  20
NEBRASKA CITY  CLOUDY    32  32 100 N29G40    29.60R WCI  18
PLATTSMOUTH    CLOUDY    31  29  92 NW23G36   29.60R WCI  18
$$

NEZ044-045-051>053-067-230000-
OMAHA AREA

CITY           SKY/WX    TMP DP  RH WIND       PRES   REMARKS
OMAHA EPPLEY   LGT SNOW  31  28  89 N35G52    29.63R FOG     WCI  15
BLAIR          CLOUDY    30  28  92 N25G39    29.62R WCI  16
FREMONT          N/A    N/A N/A N/A MISG        N/A
OFFUTT AFB     FLURRIES  31  27  85 N26G36    29.61R WCI  17
PLATTSMOUTH    CLOUDY    31  29  92 NW23G36   29.60R WCI  18
WAHOO            N/A     28  26  92 NW31G38   29.69R WCI  12
$$




USA.gov is the U.S. government's official web portal to all federal, state and local government web resources and services.